OpenBCM V1.07b12 (Linux)

Packet Radio Mailbox

SR8BBS

[OBCM_Lublin]

 Login: GUEST





  
I0OJJ  > KEPS     22.10.25 03:03z 304 Lines 14414 Bytes #2 (0) @ AMSAT
BID : ORB25295.1
Read: GUEST
Subj: 2Line Orbital Elements 25295.AMSAT
Path: SR8BBS<SR1BSZ<EA2RCF<I0OJJ
Sent: 251022/0021z @:I0OJJ.ITA.EU [Rome] obcm1.08-11-2-gbfe9
From: I0OJJ @ I0OJJ.ITA.EU (Gustavo)
To:   KEPS @ AMSAT
X-Info: This message was generated automatically


QST de W1STR

AMSAT Orbital Elements for Amateur Satellites in TLE Format
From Orbital Analysis Office
New England Sci-Tech STEM Education Center
Natick MA October 22, 2025
To all radio amateurs


These element sets describe the orbits of various satellites 
in use by the amateur radio community. For details see:
www.amsat.org/keplerian-elements-formats/

A daily update of element sets is available at:
www.amsat.org/tle/daily-bulletin.txt
or without bulletin text:
www.amsat.org/tle/dailytle.txt


AO-07
1 07530U 74089B   25294.86784687 -.00000031  00000-0  94682-4 0  9997
2 07530 101.9985 300.5839 0011984 225.3749 202.4630 12.53692677330655
UO-11
1 14781U 84021B   25294.81533907  .00002352  00000-0  25032-3 0  9991
2 14781  97.7727 258.6832 0006090 249.2668 110.7897 14.89878015221625
AO-27
1 22825U 93061C   25294.76266889  .00000255  00000-0  11411-3 0  9995
2 22825  98.7218 356.8887 0009480  81.5611 278.6645 14.30848627672909
FO-29
1 24278U 96046B   25294.79718000  .00000048  00000-0  85340-4 0  9998
2 24278  98.5517 170.8911 0349924 354.9531   4.8117 13.53257523440924
NOAA-15
1 25338U 98030A   25294.80440317  .00000258  00000-0  12339-3 0  9996
2 25338  98.5277 316.6641 0009630 331.9612  28.1049 14.27039547427291
GO-32
1 25397U 98043D   25294.44368143  .00000184  00000-0  99519-4 0  9995
2 25397  98.9871 276.4599 0001575 142.4485 217.6803 14.24355058417341
ISS
1 25544U 98067A   25294.81449823  .00015330  00000-0  28257-3 0  9990
2 25544  51.6345  39.5481 0004399 321.1043  38.9628 15.49328243534802
NO-44
1 26931U 01043C   25294.83660052  .00000293  00000-0  14063-3 0  9992
2 26931  67.0490 140.6987 0007127 273.0207  87.0079 14.31810194256323
SO-50
1 27607U 02058C   25294.78693510  .00002111  00000-0  27248-3 0  9999
2 27607  64.5518 146.1329 0068868 306.2697  53.2058 14.82112922229118
CO-55
1 27844U 03031E   25294.81038955  .00000603  00000-0  28080-3 0  9993
2 27844  98.6785 301.3789 0010086 152.0440 208.1283 14.24114230157742
CO-57
1 27848U 03031J   25294.82214251  .00000506  00000-0  24208-3 0  9993
2 27848  98.6814 301.2933 0009660 169.0924 191.0466 14.23432067157462
RS-22
1 27939U 03042A   25294.80458632  .00002336  00000-0  37385-3 0  9990
2 27939  98.3372 107.6320 0010474 308.4444  99.4439 14.72747183180456
CO-58
1 28895U 05043F   25294.83906465  .00003251  00000-0  53065-3 0  9990
2 28895  98.2686  81.0630 0013485 239.3719 120.6158 14.71578530 66686
CO-65
1 32785U 08021C   25294.89938090  .00008418  00000-0  57935-3 0  9997
2 32785  97.8015 267.3078 0011460 112.7190 247.5249 15.06093662949286
CO-66
1 32791U 08021J   25294.44246142  .00025100  00000-0  10741-2 0  9995
2 32791  97.7407 277.8988 0006218  76.8805 283.3124 15.22784896950838
RS-30
1 32953U 08025A   25294.88234097  .00000036  00000-0  18315-3 0  9990
2 32953  82.5013 143.6797 0019844 110.7258 249.5951 12.43169613790085
NOAA-19
1 33591U 09005A   25294.77709806  .00000106  00000-0  80626-4 0  9994
2 33591  98.9834   0.1444 0013439 348.9568  11.1307 14.13419938860808
SRMSAT
1 37841U 11058D   25294.64599404  .00000556  00000-0  15808-3 0  9992
2 37841  19.9722  63.2258 0011818  99.1642  13.5820 14.11484398724073
ZACUBE-1
1 39417U 13066B   25294.84705875  .00010110  00000-0  84018-3 0  9993
2 39417  97.7987 251.3722 0041590 326.4256  33.4331 14.98249554645005
Delfi-N3xt
1 39428U 13066N   25294.73944924  .00013097  00000-0  12626-2 0  9995
2 39428  97.8303 211.0065 0079016 278.6455  80.5817 14.90678332639047
GOMX-1
1 39430U 13066Q   25294.84159437  .00003147  00000-0  48553-3 0  9991
2 39430  97.6651 145.2118 0132253 122.0944 239.3181 14.68255775634926
LO-74
1 39440U 13066AA  25294.81495859  .00007064  00000-0  69110-3 0  9994
2 39440  97.8626 238.6114 0062614  96.4035 264.4318 14.91148174641437
AO-73
1 39444U 13066AE  25294.87347263  .00012854  00000-0  90217-3 0  9994
2 39444  97.7982 257.5866 0037822 294.5724  65.1562 15.04710079643767
DTUSAT-2
1 40030U 14033W   25294.88747660  .00013284  00000-0  80931-3 0  9998
2 40030  98.0710 273.4978 0007820 340.5898  19.5031 15.10496679616659
EO-80
1 40032U 14033Y   25294.83422954  .00012782  00000-0  77751-3 0  9999
2 40032  98.0583 272.9096 0006014 266.6477  93.4063 15.10573363616628
LILACSAT-2
1 40908U 15049K   25294.81233917  .00020831  00000-0  47947-3 0  9994
2 40908  97.4978 318.6606 0009731  47.6560 312.5510 15.42609323558892
IO-86
1 40931U 15052B   25151.18580175  .00001241  00000-0  78118-4 0  9996
2 40931   6.0006  24.0987 0012733 338.8432  21.1169 14.78805930523159
Horyu-4
1 41340U 16012D   25294.37929228  .00055263  00000-0  11300-2 0  9994
2 41340  30.9958 307.8701 0003095  37.8873 322.1992 15.44851281533432
Lapan A3
1 41603U 16040E   25294.87352034  .00005540  00000-0  18728-3 0  9992
2 41603  97.1422 294.3388 0011963 141.0237 219.1869 15.30959194518327
CAS-2T
1 41847U 16066G   25294.79456553  .00002807  00000-0  40241-3 0  9990
2 41847  98.4092   8.0429 0345428 132.2099 230.8966 14.43928227470381
TechnoSat
1 42829U 17042E   25294.40384825  .00007634  00000-0  57246-3 0  9992
2 42829  97.4020  96.8947 0018477 187.5468 172.5483 15.02795109450815
AO-91
1 43017U 17073E   25294.62427748  .00013159  00000-0  63393-3 0  9991
2 43017  97.5016 162.0510 0167368  69.2923 292.6155 15.07267369429384
S-Net D
1 43186U 18014G   25294.80144010  .00008979  00000-0  50550-3 0  9997
2 43186  97.5487 196.3462 0010511 116.3265 243.9047 15.13417792422666
S-Net B
1 43187U 18014H   25294.67644495  .00009737  00000-0  54812-3 0  9993
2 43187  97.5490 196.2001 0011230 113.0551 247.1865 15.13391895422647
S-Net A
1 43188U 18014J   25294.80135176  .00008937  00000-0  50300-3 0  9999
2 43188  97.5501 196.4926 0011154 113.3717 246.8688 15.13423187422662
S-Net C
1 43189U 18014K   25294.67922050  .00009698  00000-0  54585-3 0  9994
2 43189  97.5517 196.4085 0012640 108.0487 252.2122 15.13384862421199
Ten-Koh
1 43677U 18084G   25294.80006919  .00004073  00000-0  32119-3 0  9996
2 43677  98.0698 112.3698 0009152 173.1252 187.0098 15.01318569380370
PO-101
1 43678U 18084H   25294.86092012  .00004872  00000-0  40648-3 0  9995
2 43678  98.1081 116.2331 0007574 181.7136 178.4061 14.99060827380491
QO-100
1 43700U 18090A   25294.76986516  .00000000  00000-0  00000+0 0  9991
2 43700   0.0152 227.4168 0001840  22.3339  83.6209  1.00270949 25286
MinXSS-2
1 43758U 18099A   25294.72312269  .00030285  00000-0  10070-2 0  9996
2 43758  97.4877   1.5039 0010995  48.2323 311.9855 15.31066974377455
AO-95
1 43770U 18099N   25294.62301854  .00016773  00000-0  77587-3 0  9990
2 43770  97.4758 351.3384 0011560 105.1146 255.1368 15.20159213376893
SNUSat 2
1 43782U 18099AA  25294.76723856  .00012950  00000-0  65800-3 0  9996
2 43782  97.4438 347.0931 0012504  53.9627 306.2763 15.16938572376822
SnugLite
1 43784U 18099AC  25294.68873419  .00017408  00000-0  79776-3 0  9990
2 43784  97.4252 346.8946 0004386  64.0704 296.0983 15.20522402376993
ITASat 1
1 43786U 18099AE  25294.66862333  .00010929  00000-0  58782-3 0  9998
2 43786  97.4407 346.0870 0015393 102.0828 258.2130 15.14933117376744
EAGLET 1
1 43790U 18099AJ  25294.77683000  .00006804  00000-0  41743-3 0  9993
2 43790  97.4601 345.6559 0013207  89.3924 270.8819 15.10370184376312
ESEO
1 43792U 18099AL  25294.69776100  .00002446  00000-0  18486-3 0  9996
2 43792  97.4317 336.9955 0014257  69.6234 290.6522 15.03183040375968
JO-97
1 43803U 18099AX  25294.80543007  .00020036  00000-0  81408-3 0  9999
2 43803  97.4503 352.8589 0007587  45.3095 314.8759 15.24572959377194
Suomi 100
1 43804U 18099AY  25294.79510876  .00016684  00000-0  74259-3 0  9996
2 43804  97.4567 351.7111 0012361  45.7896 314.4353 15.21474178377088
ISAT
1 43879U 18111D   25294.73023138  .00043925  00000-0  12128-2 0  9991
2 43879  97.5884 212.5631 0010985  84.6678 275.5818 15.36880008374241
UWE-4
1 43880U 18111E   25294.72956622  .00032524  00000-0  10812-2 0  9996
2 43880  97.5827 209.9621 0013608  95.4115 264.8678 15.31027935374118
Sparrow
1 43881U 18111F   25294.71747983  .00048158  00000-0  12548-2 0  9992
2 43881  97.6060 216.0133 0009245 108.8806 251.3442 15.38669250374359
Prox-1
1 44339U 19036A   25294.19986312  .00018582  00000-0  21848-2 0  9992
2 44339  23.9966 262.2114 0007435 160.3972 199.6813 14.83250631337851
Taurus 1
1 44530U 19059C   25294.85170903  .00012885  00000-0  22565-2 0  9991
2 44530  98.6211  80.9049 0008702 337.7453  22.3372 14.67923162323620
Duchifat 3
1 44854U 19089C   25294.85657823  .00177430  00000-0  15349-2 0  9994
2 44854  36.9343 211.9935 0009916 270.5154  89.4473 15.67641006323913
TO-108
1 44881U 19093C   25294.85221113  .00001904  00000-0  22404-3 0  9991
2 44881  97.7813   7.6354 0014476 146.0136 214.2009 14.85923531316010
FloripaSat 1
1 44885U 19093G   25294.83755469  .00010490  00000-0  84121-3 0  9993
2 44885  97.8091  22.8157 0011147 130.4663 229.7534 15.00245024316866
RS-44
1 44909U 19096E   25294.63351300  .00000034  00000-0  97025-4 0  9998
2 44909  82.5190 138.2384 0217251 342.4114  16.9544 12.79744771271838
SALSAT
1 46495U 20068K   25294.84965884  .00012962  00000-0  52046-3 0  9998
2 46495  97.8748 279.3842 0012767  61.7317 298.5206 15.25034954278979
CSS (TIANHE-1)
1 48274U 21035A   25294.59181052  .00040339  00000-0  47896-3 0  9995
2 48274  41.4670 333.5355 0011431 256.9490 103.0072 15.60336485255883
TUBIN
1 48900U 21059X   25294.85661725  .00146674  00000-0  82003-3 0  9994
2 48900  97.6720 116.5179 0001740  93.1811 266.9654 15.78945884241070
CUTE
1 49263U 21088D   25294.76222278  .00071211  00000-0  10807-2 0  9991
2 49263  97.4399  15.4500 0006876 100.5655 259.6374 15.54338074225219
